This demonstration page uses our WeatherBlox Daily Observations layout. Learn more.

Left ArrowRight Arrow

38.20091, -84.87328

Hourly Observations for July 29, 2021

Temp ( °F °C ) Dew Point ( °F °C ) Humidity (%) Winds ( mph kmh ) Pressure ( in mb ) Visibility ( mi km ) Precip ( " mm )
12:53 am 00:53 Clear 73 22.8 70 21.1 90 90 Calm 30.01 1016 9 14 0.00 0.00
1:53 am 01:53 Clear 73 22.8 70 21.1 90 90 Calm 30.00 1016 9 14 0.00 0.00
2:53 am 02:53 Clear 72 22.2 69 20.6 91 91 NNW 3 6 29.99 1016 7 11 0.00 0.00
3:53 am 03:53 Clear 72 22.2 69 20.6 91 91 Calm 29.98 1015 8 13 0.00 0.00
4:53 am 04:53 Clear with Mist and Fog 70 21.1 68 20 93 93 Calm 29.99 1016 6 10 0.00 0.00
5:53 am 05:53 Clear with Mist and Fog 70 21.1 68 20 93 93 Calm 29.99 1016 6 10 0.00 0.00
6:53 am 06:53 Sunny with Mist and Fog 69 20.6 68 20 96 96 Calm 29.98 1015 4 6 0.00 0.00
7:53 am 07:53 Sunny with Mist and Fog 70 21.1 68 20 93 93 Calm 30.01 1016 5 8 0.00 0.00
8:53 am 08:53 Sunny with Mist and Fog 75 23.9 72 22.2 90 90 Calm 30.05 1018 5 8 0.00 0.00
9:53 am 09:53 Sunny 77 25 72 22.2 85 85 SW 8 13 30.01 1016 7 11 0.00 0.00
10:53 am 10:53 Sunny 82 27.8 73 22.8 74 74 SW 9 15 29.98 1015 8 13 0.00 0.00
11:53 am 11:53 Sunny 84 28.9 73 22.8 70 70 WSW 10 17 29.99 1016 9 14 0.00 0.00
12:53 pm 12:53 Mostly Sunny 85 29.4 73 22.8 68 68 WSW 9 15 29.97 1015 8 13 0.00 0.00
1:53 pm 13:53 Mostly Sunny 86 30 73 22.8 65 65 W 7 11 29.97 1015 9 14 0.00 0.00
2:53 pm 14:53 Mostly Sunny 87 30.6 72 22.2 61 61 SSW 9 15 29.96 1015 10 16 0.00 0.00
3:53 pm 15:53 Sunny 87 30.6 74 23.3 65 65 SW 13 20 29.94 1014 10 16 0.00 0.00
4:53 pm 16:53 Sunny 89 31.7 74 23.3 61 61 SW 13 20 29.92 1013 9 14 0.00 0.00
5:53 pm 17:53 Mostly Sunny 88 31.1 74 23.3 63 63 W 12 19 29.93 1014 8 13 0.00 0.00
6:53 pm 18:53 Sunny 88 31.1 76 24.4 68 68 WSW 8 13 29.93 1013 8 13 0.00 0.00
7:53 pm 19:53 Sunny 86 30 75 23.9 70 70 SW 12 19 29.90 1012 8 13 0.00 0.00
8:53 pm 20:53 Mostly Cloudy 84 28.9 77 25 80 80 SW 7 11 29.90 1012 8 13 0.00 0.00
9:53 pm 21:53 Cloudy 83 28.3 77 25 82 82 SW 8 13 29.91 1013 8 13 0.00 0.00
10:53 pm 22:53 Mostly Clear 83 28.3 76 24.4 79 79 WSW 9 15 29.89 1012 8 13 0.00 0.00
11:53 pm 23:53 Partly Cloudy 83 28.3 75 23.9 77 77 W 9 15 29.88 1012 10 16 0.00 0.00

Powered by AerisWeather